Kaneohe MCBH, HI

3:03 AM HST on September 18, 2019 (GMT -1000)
Kaneohe Bay Marine Corps Air Facility

Weather History for PHNG - August, 2019

Change the Weather History Date:

Friday, August 23, 2019

  Actual Average Record
Temperature  
Mean Temperature 81 °F -  
Max Temperature 84 °F 81 °F 87 °F (2017)
Min Temperature 78 °F 73 °F 71 °F (1996)
Cooling Degree Days 16    
Growing Degree Days 31 (Base 50)    
Moisture  
Dew Point 75 °F    
Average Humidity 82    
Maximum Humidity 97    
Minimum Humidity 67    
Precipitation  
Precipitation 0.07 in - - ()
Sea Level Pressure  
Sea Level Pressure 29.91 in    
Wind  
Wind Speed 8 mph ()    
Max Wind Speed 16 mph    
Max Gust Speed 29 mph    
Visibility 7.9 miles    
Events Rain    
Averages and records for this station are not official NWS values.
T = Trace of Precipitation, MM = Missing Value Source: Averaged Metar Reports

Daily Weather History Graph

Daily Weather History Graph

Search for Another Location

Airport or City:

Astronomy

Aug. 23, 2019 Rise Set
Actual Time 6:11 AM HST 6:55 PM HST
Civil Twilight 5:49 AM HST 7:17 PM HST
Nautical Twilight 5:22 AM HST 7:44 PM HST
Astronomical Twilight 4:54 AM HST 8:11 PM HST
Moon No Moon Rise 1:04 PM HST (8/23)
Length of Visible Light 13h 28m
Length of Day
12h 43m
Waning Gibbous, 47% of the Moon is Illuminated
Aug 23
Waning Gibbous
Aug 30
New
Sep 5
First Quarter
Sep 13
Full
Sep 21
Last Quarter

Hourly Weather History & Observations

Time (HST) Temp. Heat Index Dew Point Humidity Pressure Visibility Wind Dir Wind Speed Gust Speed Precip Events Conditions
12:57 AM 81.0 °F 85.2 °F 72.0 °F 74% 29.93 in 10.0 mi ENE 8.1 mph - N/A   Overcast
1:57 AM 81.0 °F 85.2 °F 72.0 °F 74% 29.91 in 10.0 mi ENE 9.2 mph - 0.00 in Rain Light Rain
2:33 AM 79.0 °F - 73.0 °F 82% 29.91 in 9.0 mi East 5.8 mph - 0.00 in Rain Light Rain
2:57 AM 79.0 °F - 73.0 °F 82% 29.90 in 10.0 mi Variable 3.5 mph - 0.00 in   Mostly Cloudy
3:57 AM 80.1 °F 84.2 °F 73.0 °F 79% 29.90 in 10.0 mi ENE 5.8 mph - N/A   Overcast
4:57 AM 80.1 °F 83.8 °F 72.0 °F 76% 29.90 in 10.0 mi ENE 5.8 mph - N/A   Mostly Cloudy
5:57 AM 78.1 °F - 73.0 °F 84% 29.91 in 10.0 mi ENE 5.8 mph - N/A   Scattered Clouds
6:36 AM 79.0 °F - 73.9 °F 84% 29.93 in 10.0 mi North - - 0.00 in   Mostly Cloudy
6:45 AM 78.1 °F - 73.0 °F 84% 29.94 in 7.0 mi East 9.2 mph - 0.00 in Rain Light Rain
6:57 AM 78.1 °F - 73.0 °F 84% 29.93 in 10.0 mi East 4.6 mph - 0.00 in   Overcast
7:57 AM 81.0 °F 85.8 °F 73.0 °F 77% 29.93 in 10.0 mi ENE 9.2 mph - N/A   Mostly Cloudy
8:12 AM 82.9 °F 88.8 °F 73.0 °F 72% 29.95 in 10.0 mi East 8.1 mph - N/A   Mostly Cloudy
8:57 AM 82.9 °F 88.0 °F 72.0 °F 69% 29.94 in 10.0 mi East 8.1 mph - N/A   Mostly Cloudy
9:57 AM 84.9 °F 91.4 °F 73.0 °F 67% 29.94 in 10.0 mi ENE 10.4 mph - N/A   Mostly Cloudy
10:57 AM 84.9 °F 91.4 °F 73.0 °F 67% 29.94 in 10.0 mi NE 10.4 mph - N/A   Overcast
11:57 AM 84.9 °F 91.4 °F 73.0 °F 67% 29.93 in 10.0 mi ENE 10.4 mph - N/A   Overcast
12:43 PM 80.1 °F 85.4 °F 75.9 °F 87% 29.93 in 2.0 mi ENE 8.1 mph - 0.00 in Rain Light Rain
12:46 PM 80.1 °F 85.8 °F 77.0 °F 90% 29.93 in 3.0 mi ENE 6.9 mph - 0.00 in Rain Light Rain
12:57 PM 82.0 °F 89.4 °F 75.9 °F 82% 29.91 in 10.0 mi NE 6.9 mph - 0.00 in   Scattered Clouds
1:57 PM 84.0 °F 91.9 °F 75.0 °F 74% 29.90 in 10.0 mi NNE 11.5 mph - N/A   Overcast
2:57 PM 82.0 °F 90.2 °F 77.0 °F 85% 29.88 in 8.0 mi NE 11.5 mph - 0.00 in Rain Light Rain
3:11 PM 82.9 °F 91.8 °F 77.0 °F 82% 29.89 in 10.0 mi NNE 10.4 mph - 0.00 in   Mostly Cloudy
3:32 PM 81.0 °F 88.6 °F 78.1 °F 91% 29.89 in 2.0 mi NE 6.9 mph - 0.01 in Rain Light Rain
3:37 PM 81.0 °F 89.2 °F 79.0 °F 94% 29.89 in 3.0 mi NNE 6.9 mph - 0.01 in Rain Light Rain
3:57 PM - - - N/A% - 10.0 mi NE 11.5 mph - N/A   Mostly Cloudy
4:04 PM 82.9 °F 94.8 °F 80.1 °F 91% 29.89 in 10.0 mi ENE 10.4 mph - N/A   Mostly Cloudy
4:17 PM 84.0 °F 92.6 °F 75.9 °F 76% 29.89 in 10.0 mi ENE 12.7 mph - N/A   Mostly Cloudy
4:41 PM 82.9 °F 90.2 °F 75.0 °F 77% 29.89 in 10.0 mi East 10.4 mph 18.4 mph 0.00 in   Mostly Cloudy
4:54 PM 80.6 °F 86.2 °F 75.2 °F 84% 29.89 in 2.5 mi East 9.2 mph - 0.01 in Rain Rain
4:57 PM 80.1 °F 85.4 °F 75.9 °F 87% 29.87 in 2.0 mi East 9.2 mph - 0.02 in Rain Rain
5:00 PM 80.1 °F 85.8 °F 77.0 °F 90% 29.89 in 1.8 mi ENE 12.7 mph - 0.00 in Rain Light Rain
5:03 PM 80.1 °F 85.8 °F 77.0 °F 90% 29.89 in 2.0 mi East 12.7 mph - 0.00 in Rain Light Rain
5:11 PM 80.1 °F 86.7 °F 79.0 °F 96% 29.89 in 4.0 mi East 11.5 mph - 0.01 in Rain Light Rain
5:21 PM 80.1 °F 86.7 °F 79.0 °F 96% 29.89 in 4.0 mi East 11.5 mph - 0.01 in Rain Light Rain
5:30 PM 80.1 °F 86.7 °F 79.0 °F 96% 29.89 in 4.0 mi East 11.5 mph - 0.01 in   Overcast
5:57 PM 80.1 °F 86.7 °F 79.0 °F 96% 29.89 in 4.0 mi East 11.5 mph - 0.05 in Rain Rain
6:05 PM 80.1 °F 86.7 °F 79.0 °F 96% 29.90 in 5.0 mi East 12.7 mph 21.9 mph 0.00 in Rain Light Rain
6:22 PM 80.1 °F 86.7 °F 79.0 °F 96% 29.91 in 10.0 mi East 11.5 mph 17.3 mph 0.00 in   Overcast
6:57 PM 81.0 °F 89.9 °F 80.1 °F 97% 29.90 in 10.0 mi East 16.1 mph 25.3 mph 0.00 in   Overcast
7:57 PM 82.0 °F 87.9 °F 73.9 °F 76% 29.92 in 10.0 mi East 16.1 mph 28.8 mph N/A   Overcast
8:06 PM 82.0 °F 87.9 °F 73.9 °F 76% 29.94 in 10.0 mi East 12.7 mph 28.8 mph N/A   Overcast
8:57 PM 82.0 °F 87.9 °F 73.9 °F 76% 29.94 in 10.0 mi East 11.5 mph - N/A   Overcast
9:27 PM 82.0 °F 87.4 °F 73.0 °F 74% 29.97 in 10.0 mi East 13.8 mph 19.6 mph N/A   Overcast
9:54 PM 80.6 °F 85.4 °F 73.4 °F 79% 29.97 in 10.0 mi East 9.2 mph 20.7 mph N/A   Overcast
9:57 PM 81.0 °F 85.8 °F 73.0 °F 77% 29.96 in 10.0 mi East 9.2 mph 20.7 mph N/A   Overcast
10:57 PM 81.0 °F 85.8 °F 73.0 °F 77% 29.95 in 10.0 mi East 11.5 mph - N/A   Mostly Cloudy
11:57 PM 81.0 °F 85.2 °F 72.0 °F 74% 29.94 in 10.0 mi East 12.7 mph 24.2 mph N/A   Scattered Clouds